[[{"header":{"parameterUnit":"m.s-1","parameterCategory":1,"la1":30.2991,"la2":30.254,"lo1":-89.0895,"lo2":-89.0444,"dy":0.0017,"dx":0.0017,"nx":28,"ny":28,"refTime":"2024-06-22T21:00:00:Z","depth":0,"parameterNumber":2,"parameterNumberName":"U-component_of_WINDS"},"data":[0,0,0,0,0,0,0,0,0,0,0,0,0,0,0,0,0,0,0,0,0,0,0,0,0,0,0,0,0,0,0,0,0,0,0,0,0,0,0,0,0,0,0,0,0,0,0,0,0,0,0,0,0,0,0,0,0,0,0.9663,0.9663,0,0.9692,0.9692,0.9692,0.9704,0.9704,0.9704,0.9704,0.9734,0.9735,0.9736,0,0,0,0,0,0,0,0,0,0,0,0,0,0.9621,0.9621,0.9663,0.9663,0.9664,0.9692,0.9692,0.9692,0.9704,0.9704,0.9704,0.9704,0.9734,0.9735,0.9736,0,0,0,0,0,0,0,0,0,0,0,0,0,0.9643,0.9621,0.9663,0.9673,0.9674,0.9691,0.9692,0.9692,0.9704,0.9704,0.9704,0.9704,0.9734,0.9735,0.9736,0.9746,0,0,0.974,0.9741,0,0,0,0,0,0,0,0,0.9642,0.9645,0.9671,0.9672,0.9674,0.9694,0.9688,0.971,0.9705,0.9693,0.9704,0.9704,0.9721,0.9724,0.9729,0.9747,0.9749,0.974,0.9741,0.9742,0.9742,0,0,0,0,0,0,0,0.964,0.9643,0.9674,0.9672,0.9673,0.9677,0.968,0.9692,0.9707,0.9694,0.9695,0.9698,0.9722,0.9728,0.973,0.9749,0.974,0.9741,0.9742,0.9743,0.9777,0.9777,0,0,0,0,0,0,0.9637,0.9642,0.9673,0.9675,0.9657,0.9678,0.9681,0.9688,0.9707,0.971,0.9698,0.9699,0.9726,0.9728,0.9731,0.9744,0.9742,0.9743,0.9744,0.9777,0.9777,0.9777,0,0,0,0,0,0,0.9636,0.9639,0.9672,0.9659,0.9663,0.9678,0.9686,0.9688,0.9694,0.971,0.9713,0.9701,0.9726,0.9729,0.9742,0.9745,0.9743,0.9745,0.9777,0.9777,0.9777,0.9769,0,0,0,0,0,0,0.9635,0.9639,0.9642,0.9659,0.9664,0.9682,0.9686,0.9689,0.9696,0.9697,0.9714,0.9717,0.9726,0.974,0.9743,0.9747,0.9746,0.9777,0.9777,0.9777,0.9769,0.9769,0.9769,0,0,0,0,0,0.9633,0.9639,0.9642,0.9646,0.9668,0.9683,0.9686,0.9696,0.9697,0.97,0.9711,0.9716,0.9744,0.9741,0.9745,0.9749,0.9777,0.9777,0.9777,0.9769,0.9769,0.9769,0,0,0,0,0,0,0.9622,0.9641,0.9645,0.9657,0.9668,0.9685,0.969,0.9695,0.9707,0.9707,0.9719,0.9723,0.9735,0.9743,0.974,0.9759,0.9761,0.9762,0.9753,0.9753,0.9753,0.9751,0.9747,0,0,0,0,0,0.9621,0.9631,0.9647,0.9656,0.9661,0.9674,0.9681,0.9688,0.97,0.9705,0.9716,0.9728,0.974,0.9747,0.9759,0.9771,0.9775,0.9775,0.9775,0.9775,0.9775,0.9783,0.9783,0.9778,0.9778,0.9778,0,0,0.9619,0.9631,0.9636,0.9654,0.9663,0.9673,0.9678,0.9688,0.9696,0.9707,0.9719,0.9728,0.9743,0.9755,0.9761,0.9762,0.9778,0.9775,0.9775,0.9776,0.9783,0.9784,0.9784,0.9779,0.9779,0.9779,0,0,0.9621,0.963,0.9638,0.9648,0.9662,0.9671,0.9673,0.969,0.9696,0.9709,0.9717,0.9727,0.9746,0.9756,0.9764,0.977,0.9776,0.9774,0.9773,0.978,0.978,0.9781,0.9783,0.9784,0.9774,0.9774,0.9774,0,0.9616,0.9631,0.9642,0.9652,0.966,0.967,0.9679,0.9688,0.9705,0.9711,0.9712,0.9737,0.9747,0.9762,0.9764,0.977,0.9773,0.9772,0.9779,0.978,0.978,0.9783,0.9784,0.9774,0.9774,0.9774,0.9774,0,0.9626,0.9636,0.9641,0.9658,0.9666,0.9676,0.9688,0.9696,0.9702,0.9711,0.9725,0.9738,0.9752,0.9757,0.9763,0.9773,0.9773,0.9777,0.9778,0.978,0.9783,0.9784,0.9774,0.9774,0.9774,0.9774,0,0,0.962,0.9643,0.9645,0.9653,0.967,0.9678,0.9689,0.9703,0.9709,0.9721,0.973,0.9747,0.975,0.9759,0.9767,0.9773,0.9778,0.9776,0.9776,0.9776,0.979,0.9787,0.9788,0.9782,0.9782,0.9782,0.9789,0,0.9624,0.9642,0.9653,0.9667,0.9677,0.9687,0.9696,0.9708,0.9717,0.9727,0.9738,0.9749,0.9753,0.9758,0.9765,0.9776,0.9781,0.9775,0.9791,0.9791,0.9787,0.979,0.9787,0.9792,0.979,0.979,0.979,0,0.9631,0.9642,0.9657,0.9674,0.9679,0.9687,0.9701,0.971,0.9724,0.973,0.974,0.9748,0.976,0.9761,0.9778,0.9774,0.9781,0.9788,0.9788,0.979,0.9791,0.9791,0.9794,0.9795,0.9792,0.9792,0.9792,0,0.9625,0.9645,0.9657,0.9663,0.9683,0.9688,0.9697,0.9711,0.9719,0.9731,0.9737,0.9751,0.9758,0.9769,0.9781,0.978,0.9797,0.9798,0.9802,0.9802,0.9805,0.9805,0.9809,0.981,0.981,0.981,0.981,0,0.9628,0.9637,0.9655,0.9662,0.9673,0.9685,0.9695,0.9705,0.9717,0.9727,0.9737,0.9746,0.976,0.9772,0.9781,0.9794,0.9797,0.9803,0.9805,0.9802,0.9801,0.9806,0.9806,0.981,0.981,0.981,0.981,0,0.9624,0.9636,0.965,0.9667,0.9672,0.9679,0.9694,0.9702,0.9712,0.9724,0.9728,0.9743,0.9757,0.977,0.9788,0.9794,0.9807,0.981,0.9802,0.9803,0.9807,0.9806,0.9815,0.9816,0.9816,0.9816,0.9816,0,0.9625,0.9632,0.9651,0.9658,0.9666,0.9677,0.9685,0.9698,0.9707,0.9724,0.9729,0.9744,0.9756,0.9777,0.979,0.9804,0.9808,0.981,0.981,0.9807,0.9808,0.9807,0.9808,0.9809,0.9809,0.9809,0.9809,0,0.9625,0.9631,0.9643,0.9657,0.9666,0.9678,0.969,0.9695,0.971,0.9719,0.9733,0.9743,0.9761,0.9775,0.9791,0.9801,0.9808,0.9809,0.9811,0.9807,0.9803,0.9805,0.9801,0.9809,0.9809,0.9809,0.9809,0.9809,0.9624,0.9631,0.9645,0.9658,0.9668,0.9679,0.9688,0.9699,0.971,0.9726,0.9733,0.9748,0.9762,0.9784,0.9793,0.9805,0.9807,0.9809,0.981,0.981,0.9809,0.9801,0.9808,0.9808,0.9808,0.9808,0.9808,0,0.9625,0.9635,0.9646,0.9663,0.9673,0.9679,0.9692,0.9701,0.9713,0.9726,0.9738,0.9754,0.9768,0.9782,0.9797,0.9804,0.9808,0.9807,0.9807,0.9809,0.9807,0.9804,0.9804,0.9804,0.9804,0.9804,0.9804,0.9804,0.9627,0.9639,0.9647,0.9664,0.9674,0.9688,0.9696,0.9706,0.9717,0.9734,0.9746,0.9755,0.9769,0.9785,0.9799,0.9803,0.9808,0.9807,0.9812,0.9809,0.9809,0.9809,0.9807,0.9808,0.9808,0.9813,0.9813,0.9813]},{"header":{"parameterUnit":"m.s-1","parameterCategory":1,"la1":30.2991,"la2":30.254,"lo1":-89.0895,"lo2":-89.0444,"dy":0.0017,"dx":0.0017,"nx":28,"ny":28,"refTime":"2024-06-22T21:00:00:Z","depth":0,"parameterNumber":3,"parameterNumberName":"V-component_of_WINDS"},"data":[0,0,0,0,0,0,0,0,0,0,0,0,0,0,0,0,0,0,0,0,0,0,0,0,0,0,0,0,0,0,0,0,0,0,0,0,0,0,0,0,0,0,0,0,0,0,0,0,0,0,0,0,0,0,0,0,0,0,0.0638,0.0638,0,0.0667,0.0668,0.0668,0.0687,0.0687,0.0688,0.0688,0.072,0.0721,0.0721,0,0,0,0,0,0,0,0,0,0,0,0,0,0.0599,0.06,0.0638,0.0638,0.0639,0.0667,0.0668,0.0668,0.0687,0.0687,0.0688,0.0688,0.072,0.072,0.0721,0,0,0,0,0,0,0,0,0,0,0,0,0,0.0621,0.06,0.0638,0.0652,0.0653,0.0667,0.0668,0.0668,0.0687,0.0687,0.0688,0.0688,0.0719,0.072,0.0721,0.0725,0,0,0.0725,0.0725,0,0,0,0,0,0,0,0,0.062,0.0622,0.0649,0.0651,0.0652,0.0674,0.0666,0.0687,0.0687,0.0674,0.0688,0.0688,0.0704,0.0707,0.0712,0.0726,0.0728,0.0725,0.0726,0.0726,0.0726,0,0,0,0,0,0,0,0.0618,0.0621,0.065,0.065,0.0651,0.0657,0.066,0.067,0.0688,0.0676,0.0677,0.068,0.0705,0.0711,0.0713,0.0728,0.0725,0.0726,0.0727,0.0727,0.0745,0.0745,0,0,0,0,0,0,0.0614,0.062,0.0649,0.065,0.0636,0.0657,0.0661,0.0667,0.0688,0.0691,0.068,0.0681,0.0709,0.0712,0.0714,0.0719,0.0726,0.0727,0.0728,0.0745,0.0745,0.0745,0,0,0,0,0,0,0.0613,0.0617,0.0647,0.0636,0.064,0.0658,0.0664,0.0667,0.0673,0.0691,0.0695,0.0682,0.0709,0.0713,0.0722,0.072,0.0728,0.0729,0.0746,0.0745,0.0745,0.0728,0,0,0,0,0,0,0.0612,0.0616,0.0618,0.0635,0.064,0.0654,0.0664,0.0668,0.0674,0.0676,0.0694,0.0698,0.071,0.072,0.0723,0.0722,0.0729,0.0746,0.0746,0.0745,0.0729,0.0727,0.0726,0,0,0,0,0,0.0611,0.0612,0.0618,0.0621,0.0642,0.0654,0.0657,0.067,0.0674,0.0676,0.0687,0.0697,0.072,0.072,0.0724,0.0723,0.0746,0.0746,0.0745,0.0729,0.0727,0.0726,0,0,0,0,0,0,0.0595,0.0615,0.0621,0.0628,0.0639,0.0657,0.0659,0.0668,0.0678,0.0679,0.0696,0.07,0.0707,0.0716,0.0717,0.0727,0.0734,0.0734,0.0721,0.0719,0.0718,0.0715,0.073,0,0,0,0,0,0.0592,0.0599,0.0617,0.0621,0.0626,0.0642,0.0647,0.0656,0.0669,0.0674,0.0686,0.0698,0.0708,0.0714,0.0724,0.073,0.0734,0.0731,0.073,0.0728,0.0728,0.0731,0.073,0.0744,0.0744,0.0744,0,0,0.0586,0.0598,0.0602,0.0618,0.0628,0.0635,0.0646,0.0653,0.0659,0.0675,0.0684,0.0693,0.0708,0.0715,0.0719,0.0723,0.0725,0.0728,0.0727,0.0727,0.0731,0.073,0.0728,0.0743,0.0743,0.0744,0,0,0.058,0.059,0.0594,0.0603,0.0617,0.0627,0.0628,0.0644,0.0651,0.066,0.0672,0.0679,0.0696,0.0705,0.0712,0.0708,0.0717,0.0711,0.0703,0.0706,0.0705,0.0704,0.0702,0.0701,0.0711,0.0711,0.0711,0,0.0571,0.0582,0.0595,0.0602,0.0608,0.0622,0.0627,0.0635,0.0652,0.0656,0.066,0.068,0.0691,0.07,0.0699,0.0705,0.0706,0.0709,0.0704,0.0703,0.0702,0.07,0.07,0.071,0.071,0.071,0.071,0,0.0571,0.0578,0.058,0.0595,0.0602,0.0607,0.0621,0.0627,0.0635,0.0644,0.0653,0.0666,0.0679,0.0681,0.069,0.0692,0.0694,0.07,0.0708,0.07,0.0698,0.0698,0.0708,0.0709,0.0709,0.0709,0,0,0.0556,0.0576,0.0577,0.0583,0.0599,0.0605,0.0611,0.0622,0.0626,0.0637,0.0643,0.0656,0.0662,0.0669,0.0679,0.0682,0.0676,0.0688,0.0689,0.0685,0.0678,0.0673,0.0672,0.0682,0.0682,0.0682,0.0677,0,0.0552,0.0562,0.0573,0.058,0.0587,0.06,0.0605,0.0615,0.0624,0.0631,0.0641,0.065,0.0658,0.0662,0.0665,0.0676,0.0675,0.0677,0.0687,0.0688,0.0683,0.0671,0.0666,0.066,0.0676,0.0676,0.0676,0,0.0548,0.0557,0.0564,0.0578,0.0581,0.0586,0.0596,0.0603,0.0615,0.0621,0.0629,0.0639,0.0646,0.0652,0.0661,0.0662,0.0667,0.0673,0.0673,0.0675,0.0681,0.0672,0.0659,0.0658,0.0676,0.0676,0.0676,0,0.0536,0.055,0.0555,0.0561,0.0577,0.058,0.0587,0.0599,0.0604,0.0614,0.0618,0.0628,0.0634,0.0642,0.0654,0.0658,0.0662,0.067,0.0667,0.0667,0.0668,0.0668,0.0655,0.0671,0.0671,0.0671,0.0671,0,0.053,0.0533,0.055,0.0553,0.0558,0.0571,0.0575,0.0583,0.0593,0.0599,0.0611,0.0616,0.0632,0.0639,0.0648,0.0654,0.0657,0.0662,0.0665,0.0661,0.066,0.0665,0.0665,0.0671,0.0671,0.0671,0.0671,0,0.0517,0.0528,0.0535,0.055,0.0553,0.0556,0.0569,0.0572,0.0581,0.0588,0.0591,0.0605,0.0614,0.0626,0.0639,0.0646,0.065,0.0655,0.0646,0.0647,0.0644,0.0644,0.0634,0.0633,0.065,0.065,0.065,0,0.0512,0.0515,0.0529,0.0533,0.054,0.0546,0.0552,0.0565,0.057,0.0582,0.0585,0.0594,0.0602,0.0615,0.0627,0.0637,0.0641,0.0637,0.0643,0.0638,0.0641,0.064,0.064,0.0635,0.0635,0.0635,0.0635,0,0.0502,0.0507,0.0515,0.0523,0.0529,0.0537,0.0545,0.0548,0.0562,0.0568,0.0576,0.0582,0.0594,0.0603,0.0614,0.0622,0.063,0.0632,0.0632,0.0629,0.0623,0.0626,0.0642,0.0633,0.0633,0.0633,0.0633,0.0633,0.0493,0.0496,0.0506,0.0514,0.0521,0.0528,0.0532,0.0541,0.0548,0.0558,0.0565,0.0573,0.0584,0.0599,0.0606,0.0612,0.0616,0.0617,0.0617,0.0616,0.0615,0.0622,0.0615,0.0615,0.0615,0.0615,0.0615,0,0.0484,0.0491,0.0497,0.0508,0.0513,0.052,0.0529,0.0533,0.054,0.0549,0.0556,0.0565,0.0573,0.0585,0.0594,0.0597,0.0601,0.0599,0.0599,0.0601,0.0611,0.061,0.0595,0.0595,0.0595,0.0595,0.0595,0.0595,0.048,0.0484,0.049,0.0499,0.0506,0.0512,0.0517,0.0524,0.0531,0.054,0.0546,0.0554,0.0564,0.0574,0.0582,0.0585,0.0588,0.0584,0.0589,0.0598,0.06,0.0602,0.0601,0.0585,0.0585,0.0578,0.0578,0.0578]}]]